Voltar ao catálogo

CZ-6A DEB

AtivoSSO
NORAD 56281·DEBRIS·🇨🇳 China

Lançado Nov 11, 2022 de Taiyuan Satellite Launch Center

Loading…

Próximas Passagens (próximas 24 horas)

TLE

AtualizadoSource: Space-Track

Época: Sep 13, 2026, 23:22 UTC

1 56281U 22151ACZ 26256.97415422  .00001350  00000-0  71057-3 0  9990
2 56281  98.8339 253.8628 0058238  80.0674 280.7066 14.14837152179551

Acompanhe CZ-6A DEB em tempo real com AllMySat

Download on the App Store